User: anonymous
Location: Spradlin Observatory
(33.4706°N, 86.3221°W)
Time: 16:29:27
(UTC-05:00)
Language:

COSMOS 2406 - Orbit

View from above orbital plane
View from above orbital plane
View from above satellite
View from above satellite

Ground track
Ground track

The orbit data is extracted from the following two-line orbital elements,

1 28352U 04021A   14258.84003685 -.00000194  00000-0 -80854-4 0  3855
2 28352 071.0020 063.3635 0014680 185.3494 273.7719 14.11351199528995
Epoch (UTC): 15 September 2014 20:09:39
Eccentricity: 0.0014680
inclination: 71.0020°
perigee height: 844 km
apogee height: 865 km
right ascension of ascending node: 63.3635°
argument of perigee: 185.3494°
revolutions per day: 14.11351199
mean anomaly at epoch: 273.7719°
orbit number at epoch: 52899

The dashed part of the orbit path shows where the satellite is in the earth's shadow,  

DLR